Date,TemperatureHighF,TemperatureAvgF,TemperatureLowF,DewpointHighF,DewpointAvgF,DewpointLowF,HumidityHigh,HumidityAvg,HumidityLow,PressureMaxIn,PressureMinIn,WindSpeedMaxMPH,WindSpeedAvgMPH,GustSpeedMaxMPH,PrecipitationSumIn
2013-11-1,64.0,58.0,45.0,64.0,57.3,45.0,100,98,76,29.34,28.88,30,9,36,0.59
2013-11-2,61.0,50.2,40.0,57.9,49.3,40.0,100,97,79,29.40,29.13,16,3,29,0.01
2013-11-3,40.0,34.8,26.0,40.0,25.0,15.9,100,70,41,29.92,29.40,17,5,22,0.00
2013-11-4,42.0,27.6,18.0,29.5,21.5,16.7,100,83,37,30.22,29.91,14,2,22,0.00
2013-11-5,46.0,28.6,18.0,35.3,26.0,18.0,100,92,63,30.23,29.99,17,2,21,0.00
2013-11-6,53.0,40.6,23.0,50.5,39.5,23.0,100,96,79,29.99,29.53,15,3,19,0.00
2013-11-7,53.0,46.9,37.0,53.0,46.6,32.3,100,99,81,29.53,29.24,22,7,32,0.33
2013-11-8,41.0,35.7,28.0,35.2,32.1,28.0,100,87,69,29.45,29.28,26,6,30,0.00
2013-11-9,39.0,33.0,24.0,30.8,26.4,21.9,100,78,52,29.63,29.44,24,7,42,0.03
2013-11-10,35.0,30.4,25.0,35.0,30.4,24.0,100,100,100,29.60,29.24,8,1,10,0.01
2013-11-11,39.0,33.9,30.0,39.0,33.1,29.2,100,97,77,29.53,29.24,17,3,23,0.23
2013-11-12,35.0,28.6,25.0,34.7,23.8,17.8,100,83,66,29.57,29.32,25,8,34,0.01
2013-11-13,31.0,24.5,17.0,21.8,18.8,14.6,100,80,59,29.69,29.54,22,7,34,0.00
2013-11-14,42.0,34.0,24.0,37.5,30.4,21.2,100,87,65,29.61,29.46,13,3,19,0.00
2013-11-15,50.0,35.9,26.0,39.0,32.2,26.0,100,89,53,29.72,29.59,10,1,13,0.00
2013-11-16,55.0,32.9,23.0,43.1,29.7,23.0,100,90,46,29.93,29.72,3,0,4,0.00
2013-11-17,43.0,32.3,20.0,43.0,32.3,20.0,100,100,100,29.89,29.56,9,0,10,0.06
2013-11-18,61.0,50.2,35.0,60.0,49.6,35.0,100,98,78,29.56,29.07,19,5,24,0.53
2013-11-19,43.0,34.4,29.0,43.0,27.5,18.3,100,76,63,29.67,29.11,29,11,39,0.00
2013-11-20,36.0,30.0,26.0,20.1,16.3,11.0,72,57,35,30.12,29.67,26,8,39,0.00
2013-11-21,54.0,32.6,24.0,28.5,19.8,6.0,100,66,17,30.12,29.84,12,2,15,0.00
2013-11-22,41.0,31.0,22.0,38.0,29.0,22.0,100,93,62,29.84,29.27,9,1,16,0.01
2013-11-23,36.0,30.3,21.0,36.0,26.2,14.9,100,85,62,29.28,29.13,33,9,41,0.01
2013-11-24,21.0,18.4,15.0,14.9,11.5,8.1,81,74,60,29.38,29.06,31,14,46,0.49
2013-11-25,25.0,17.3,11.0,12.7,7.0,2.3,83,65,39,29.77,29.38,29,8,35,0.03
2013-11-26,34.0,27.1,23.0,32.0,25.4,9.2,100,94,55,29.83,29.71,9,1,15,0.00
2013-11-27,55.0,42.8,28.0,55.0,42.8,28.0,100,100,96,29.73,28.76,23,5,34,1.83
2013-11-28,36.0,25.2,17.0,36.0,21.4,11.9,100,86,66,29.82,28.81,31,10,40,0.10
2013-11-29,22.0,16.7,12.0,16.0,13.5,10.2,100,88,64,30.20,29.82,20,6,25,0.00
2013-11-30,26.0,15.6,5.0,20.0,11.4,4.8,100,86,45,30.29,29.93,13,1,16,0.00